Location: Nelson
(41.2830°S, 173.2830°E)
Time: 18:27:22
(UTC+12:00)

Meteor 2-21 Rocket - Pass Details

Date: 14 May 2021
Orbit: 936 x 967 km, 82.6° (Epoch: 19 June)

Event Time Altitude Azimuth Distance (km) Brightness Sun altitude
Rises 19:30:32 0° 356° (N) 3,643 7.6 -24.7°
Reaches altitude 10° 19:33:01 10° 357° (N) 2,706 6.9 -25.1°
Maximum altitude 19:39:14 84° 84° (E) 987 4.3 -26.3°
Drops below altitude 10° 19:45:32 10° 171° (S) 2,738 6.7 -27.5°
Sets 19:48:04 0° 171° (S) 3,690 7.4 -28.0°
